STARLINK-34039, 63946

Orbit data source: Space-Track

STARLINK-34039, 63946 is a payload satellite owned by SpaceX/Seattle (US) in LEO that was launched on Tue, 13 May 2025 UTC via an FALCON 9 launch vehicle from the Air Force Western Test Range (AFWTR). Payload-class satellites include a variety of spacecraft equipped with specific instruments for various scientific and technological missions. These include communications satellites like Starlink; space stations such as the ISS; scientific satellites like the Hubble; Earth observation satellites from companies like Planet Labs, Umbra, and HawkEye 360; GPS; miniature CubeSats for education and research; and military/defense satellites.

Loading next visibility...
Identifier
63946, 2025-098W
Orbit
LEO
Country
Flag of USUS
Related business
Manufacturer
SpaceX/Seattle
Mission
Operational Commercial Communications
Bus & Motor
STARLINK V2MO, Unknown motor
Mass
575 kg wet, ~530 kg dry
Launch date (UTC)
2025-05-13 (7 months ago)
Launch vehicle
FALCON 9
Launch site
Air Force Western Test Range (AFWTR)
Object type
Payload
Rocket body
Debris
Shape & HBR
Box + 2 Pan, 17.7 m
Radar Cross Section
36.964 m², Large (>1 m²)

Expand to show TLE details & history
Last TLE update: 20 hours ago

TLE from 20 hours ago
0 STARLINK-34039
1 63946U 25098W   25348.79523539  .00009199  00000-0  77775-3 0  9991
2 63946  70.0002 128.6033 0003151 272.0148  88.0650 14.98326915 33838
Epoch: 2025-12-14T19:05Z
TLE epoch observation values (Epoch: 2025-12-14T19:05:08.337Z)
Latitude
-0.00005°
Longitude
118.61552°
Altitude
574.416 km
Speed
7.574 km/s
True Right ascension
08h 34m 24s
True Declination
0° 00' 00"
Sunlit
Object was in full shadow at epoch
Visualization orbit readout
Latitude
Unknown
Longitude
Unknown
Altitude
Unknown
Speed
Unknown
Apparent Right ascension
Unknown
Apparent Declination
Unknown
Sunlit
N/A
Visualization observer readout
Local Sidereal Time
13:18:47
Azimuth
Unknown
Elevation
Unknown
Doppler factor
Unknown
Orbital elements
Apogee altitude
572.203 km
Perigee altitude
567.824 km
Semi-major axis
6,948.151 km
Eccentricity
0.00032
Inclination
70.0002°
RAAN
128.6033°
Arg. of periapsis
272.0148°
True anomaly
88.10109°
Mean anomaly
88.065°
Eccentric anomaly
88.08304°
Mean motion
3.74748 °/min
Orbital period
96.06 mins
BSTAR
0.00077775
Loading maneuver chart data...
Computing Atmospheric mass density...
Loading historical data...
Loading historical data...
Loading historical data...
Loading historical data...
Loading historical data...
Loading historical data...
Loading historical data...

Documentation

Showing up to 5 results
|